www.pogodaiklimat.ru

Погода и климат >> Архив погоды >> Кипр >> Лефке


ПОГОДА в Лефке

  • Прогноз погоды в Лефке
  • Монитор погоды в Лефке

АРХИВ ПОГОДЫ в Лефке

Время (UTC), дата Ветер
(напр.,м/с)
 
Видим.   Явления Облачность Т
(С)
Тd
(С)
f
(%)
Тe
(С)
Тes
(С)
Комфортность P
(гПа)
Po
(гПа)
Тmin
(С)
Tmax
(С)
R
(мм)
R24
(мм)
S
(см)
12 18.06 З 6 10 км 6/6 750 м
[Cb cap]
+28.7 +19.8 59 +35 +37 очень
душно
1007.9 1006.1
15 18.06 З 8 10 км 4/4 750 м
[Cb cap]
+27.5 +19.5 62 +33 +34 очень
душно
1007.9 1006.1
18 18.06 Ю 4 10 км 5/5 750 м
[Cu Sc]
+27.0 +16.2 52 +30 +30 душно 1009.3 1007.5 +29.7
21 18.06 ЮВ 2 10 км 3/3 750 м
[Cu hum]
+24.0 +16.2 62 +27 +27 жарко 1010.3 1008.5
00 19.06 ЮВ 3 10 км 1/1 900 м
[Cu hum]
+22.8 +15.8 65 +27 +27 душно 1009.2 1007.4
03 19.06 ЮВ 3 10 км ясно +22.0 +15.3 66 +26 +26 душно 1008.6 1006.8
06 19.06 штиль 0 10 км ясно +25.2 +16.7 59 +29 +41 душно 1009.5 1007.7 +21.9
09 19.06 З 7 10 км 4/4 750 м
[Cu hum]
+25.5 +20.9 76 +32 +35 очень
душно
1009.0 1007.2
12 19.06 З 9 10 км 6/6 750 м
[Cb cap]
+26.2 +20.3 70 +32 +33 очень
душно
1007.6 1005.8
15 19.06 З 7 10 км 6/6 750 м
[Cb cap]
+27.9 +20.3 63 +34 +35 очень
душно
1006.6 1004.8
18 19.06 З 7 10 км 3/3 750 м
[Cu hum]
+26.5 +19.9 67 +32 +32 очень
душно
1007.7 1005.9 +27.7
21 19.06 штиль 0 10 км 1/1 900 м
[Cu hum]
+25.0 +17.2 62 +29 +29 душно 1008.0 1006.2
00 20.06 Ю 2 10 км 1/1 900 м
[Cu hum]
+23.6 +16.2 63 +27 +27 жарко 1007.8 1006.0
03 20.06 штиль 0 10 км 1/1 900 м
[Cu hum]
+22.5 +16.7 70 +27 +27 душно 1007.2 1005.4
06 20.06 штиль 0 10 км ясно +25.9 1007.7 993.0 +22.0
09 20.06 СЗ 3 10 км 3/3 900 м
[Cu hum]
+25.9 +18.9 65 +31 +43 очень
душно
1007.5 1005.7
12 20.06 З 13 10 км 3/3 750 м
[Cb cap]
+27.9 +19.6 61 +34 +34 очень
душно
1005.3 1003.5
15 20.06 ЮЗ 9 10 км 3/3 750 м
[Cu hum]
+28.6 +16.2 47 +32 +32 душно 1006.0 1004.2
18 20.06 З 5 10 км 1/1 900 м
[Cu hum]
+26.8 +18.4 60 +32 +32 очень
душно
1006.9 1005.1 +29.2
21 20.06 ЮЗ 2 10 км 1/1 900 м
[Cu hum]
+24.8 +18.2 67 +29 +29 душно 1008.3 1006.5
00 21.06 Ю 3 10 км ясно +23.5 +14.6 57 +26 +26 жарко 1008.1 1006.3
03 21.06 В 2 10 км ясно +22.9 +13.6 56 +26 +26 жарко 1007.9 1006.1
06 21.06 штиль 0 10 км ясно +26.7 +16.7 54 +30 +42 душно 1008.5 1006.7 +22.4
09 21.06 З 4 10 км 3/3 750 м
[Cu hum]
+25.7 +21.3 77 +33 +42 очень
душно
1008.9 1007.1
12 21.06 З 7 10 км 4/4 750 м
[Cu med, cong]
+25.7 +21.5 78 +33 +36 очень
душно
1008.4 1006.6
15 21.06 СЗ 5 10 км 1/1 750 м
[Cu hum]
+26.0 +20.9 74 +33 +34 очень
душно
1007.6 1005.8
18 21.06 В 3 10 км 1/1 750 м
[Cu hum]
+26.0 +20.9 74 +33 +33 очень
душно
1008.1 1006.3 +27.0
21 21.06 Ю 3 10 км 1/1 750 м
[Cu hum]
+24.8 +17.2 63 +29 +29 душно 1008.5 1006.7
00 22.06 Ю 2 10 км 1/1 750 м
[Cu hum]
+23.9 +16.6 64 +27 +27 жарко 1008.1 1006.3
03 22.06 Ю 2 10 км 1/1 750 м
[Cu hum]
+23.3 +14.5 58 +27 +27 душно 1007.9 1006.1
06 22.06 штиль 0 10 км ясно +25.5 +17.2 60 +29 +41 душно 1008.7 1006.9 +22.6
09 22.06 З 4 10 км 1/1 900 м
[Cu hum]
+25.9 +20.0 70 +32 +44 очень
душно
1009.5 1007.7
12 22.06 З 5 10 км 5/5 750 м
[Cu med, cong]
+26.2 +22.0 78 +34 +38 очень
душно
1009.4 1007.6
15 22.06 З 5 10 км 4/4 750 м
[Cu med, cong]
+26.1 +22.2 79 +34 +35 очень
душно
1008.6 1006.8
18 22.06 З 5 10 км ясно +25.8 +22.2 81 +34 +34 очень
душно
1009.1 1007.3 +26.5
21 22.06 СВ 3 10 км ясно +25.6 +21.6 79 +33 +33 очень
душно
1009.4 1007.6
00 23.06 штиль 0 10 км ясно +24.6 +20.2 77 +30 +30 очень
душно
1008.9 1007.1
03 23.06 Ю 4 10 км ясно +23.8 +17.5 68 +28 +28 душно 1009.2 1007.4
06 23.06 штиль 0 10 км ясно +26.1 +19.1 65 +31 +43 очень
душно
1009.8 1008.0 +22.9
09 23.06 З 4 10 км 1/1 750 м
[Cu hum]
+26.0 +21.9 78 +33 +47 очень
душно
1010.3 1008.5
12 23.06 З 7 10 км 3/3 750 м
[Cu hum]
+26.5 +22.8 80 +35 +39 очень
душно
1009.9 1008.1
15 23.06 З 5 10 км 1/1 750 м
[Cu hum]
+26.7 +23.1 81 +36 +37 очень
душно
1009.7 1007.9
18 23.06 штиль 0 10 км 1/1 900 м
[Cu hum]
+27.4 +20.5 66 +34 +34 очень
душно
1009.9 1008.1 +27.2
21 23.06 Ю 2 10 км ясно +26.3 +20.3 70 +33 +33 очень
душно
1010.4 1008.6
00 24.06 Ю 2 10 км ясно +27.1 +15.4 49 +30 +30 душно 1009.8 1008.0
03 24.06 ЮВ 2 10 км ясно +25.9 +12.9 45 +28 +28 жарко 1009.4 1007.6
06 24.06 СЗ 2 10 км ясно +29.7 +12.9 36 +31 +41 жарко 1009.7 1007.9 +25.6
09 24.06 З 5 10 км ясно +26.9 +22.8 78 +36 +46 очень
душно
1009.9 1008.1
12 24.06 З 5 10 км 1/1 900 м
[Cu hum]
+27.0 +23.8 83 +37 +45 очень
душно
1009.2 1007.4
15 24.06 З 8 10 км 1/1 900 м
[Cu hum]
+28.5 +22.6 70 +37 +38 очень
душно
1008.2 1006.4
18 24.06 В 2 10 км ясно +28.1 +22.3 71 +37 +37 очень
душно
1009.3 1007.5 +29.9
21 24.06 ЮВ 2 10 км ясно +26.4 +19.5 66 +32 +32 очень
душно
1010.0 1008.2
00 25.06 ЮВ 2 10 км ясно +26.6 +14.0 46 +29 +29 жарко 1008.9 1007.1
03 25.06 штиль 0 10 км ясно +25.5 +11.2 41 +27 +27 жарко 1008.6 1006.8
06 25.06 штиль 0 10 км ясно +29.7 +12.9 36 +31 +43 жарко 1009.2 1007.3 +24.9
09 25.06 З 3 10 км 1/1 900 м
[Cu hum]
+28.9 +17.2 49 +33 +48 очень
душно
1009.4 1007.6

 

Местоположение метеостанции Лефке (Кипр): широта 35.82 долгота 32.83 высота над уровнем моря 129 м.

В архиве по умолчанию представлена погода в Лефке за последнюю неделю. Архивные данные за месяц целиком и за предыдущие месяцы, начиная с января 2011 года, Вы можете получить, выбрав интересующий диапазон дат из раскрывающегося списка и нажав кнопку "Ввод!".


*Определитесь, кто Вы:
робот инопланетянин человек

Внимание! Время в таблицах - всемирное. Для получения местного времени необходимо прибавить поправку, которая равна 2 ч.

Смотрите также архив погоды в соседних городах и на ближайших метеорологических станциях:

Погода в Анамуре (Турция) (29 км)
Погода в Акденизе (Кипр) (59 км)
Погода в Киринии (Кипр) (69 км)
Погода в Аталассе (Кипр) (91 км)
Погода в Никосии (Кипр) (96 км)
Погода в Лефконико (Кипр) (103 км)
Погода на Базе ВВС Gecitkale (Кипр) (105 км)
Погода в Аланье (Турция) (110 км)
Погода в Гиалусе (Кипр) (112 км)
Погода в Искеле (Кипр) (112 км)

Пояснения к столбцам:

Ветер - указаны скорость ветра в м/с - средняя за 10 мин, порывы в срок и между сроками (в фигурных скобках) и направление, откуда дует ветер: С - северный, СВ - северо-восточный, В - восточный, ЮВ - юго-восточный, Ю - южный, ЮЗ - юго-западный, З - западный, СЗ - северо-западный.
Видимость - горизонтальная дальность видимости в метрах или километрах. При видимости от 1 до 10 км при отсутствии осадков обычно наблюдается дымка, при ухудшении видимости до 1 км и менее - туман. В сухую погоду видимость может ухудшаться дымом, пылью или мглою.
Явления - указаны атмосферные явления, наблюдавшиеся в срок или в последний час перед сроком; фигурными скобками обозначены явления, наблюдавшиеся между сроками (за 1-3 часа до срока); квадратными скобками обозначены град или гололедные отложения с указанием их диаметра в мм.
Облачность - указаны через наклонную черту общая и нижняя облачность в баллах и высота нижней границы облаков в метрах; квадратными скобками обозначены формы облаков: Ci - перистые, Cs - перисто-слоистые, Cc - перисто-кучевые, Ac - высококучевые, As - высокослоистые, Sc - слоисто-кучевые, Ns - слоисто-дождевые, Cu - кучевые, Cb - кучево-дождевые. Подробнее классификацию облаков см. в Атласе облаков (PDF).
T - Температура воздуха - температура, измеренная на высоте 2 м над землей.
Td - Температура точки росы - температура, при понижении до которой содержащийся в воздухе водяной пар достигнет насыщения.
f - Относительная влажность воздуха - влажноcть воздуха, измеренная на высоте 2 м над землей.
Te - Эффективная температура - температура, которую ощущает одетый по сезону человек в тени. Характеристика душности погоды. При расчете учитывается влияние влажности воздуха и скорости ветра на теплоощущения человека.
Tes - Эффективная температура на солнце - температура, которую ощущает человек, с поправкой на солнечный нагрев. Характеристика знойности погоды. Зависит от высоты солнца над горизонтом, облачности и скорости ветра. Ночью, в пасмурную погоду, а также при ветре 12 м/с и более поправка равна нулю.
P - Атмосферное давление - приведенное к уровню моря атмосферное давление.
Po - Атмосферное давление - измеренное на уровне метеостанции атмосферное давление.
Tmin - Минимальная температура - минимум температуры воздуха на высоте 2 м над землей.
Tmax - Максимальная температура - максимум температуры воздуха на высоте 2 м над землей.
R - Количество осадков - Количество выпавших осадков за период времени, мм. При наведении курсора мыши на число - период времени, за который выпало указанное количество осадков.
R24 - Количество осадков - Количество выпавших осадков за 24 часа, мм.
S - Снежный покров - Высота снежного покрова, см. При наведении курсора мыши на число - состояние снежного покрова и степень покрытия местности в баллах.